Date,TemperatureHighF,TemperatureAvgF,TemperatureLowF,DewpointHighF,DewpointAvgF,DewpointLowF,HumidityHigh,HumidityAvg,HumidityLow,PressureMaxIn,PressureMinIn,WindSpeedMaxMPH,WindSpeedAvgMPH,GustSpeedMaxMPH,PrecipitationSumIn
2013-4-1,64.4,63.0,61.9,63.8,62.4,61.3,98,98,98,30.03,30.03,0,0,1,0.00
2013-4-2,86.4,69.0,58.6,71.0,58.3,46.3,98,76,29,30.07,29.98,6,1,9,0.00
2013-4-3,67.6,64.3,61.5,67.1,63.7,61.0,98,98,98,30.18,30.03,7,1,11,2.54
2013-4-4,73.6,64.5,60.1,68.9,62.2,56.6,98,93,63,30.45,30.27,8,2,17,1.29
2013-4-5,80.2,69.0,60.4,69.0,58.8,48.0,98,76,35,30.45,30.36,7,2,13,0.00
2013-4-6,76.3,63.3,59.7,69.4,61.4,57.0,98,94,56,30.42,30.27,8,1,15,0.00
2013-4-7,79.9,60.6,56.1,71.2,58.2,52.3,98,93,44,30.30,30.18,7,0,13,0.00
2013-4-8,82.4,75.5,61.7,69.9,60.1,52.5,98,61,40,30.33,30.21,7,3,12,0.00
2013-4-9,81.1,71.6,59.5,70.1,62.5,58.8,98,75,53,30.36,30.24,7,2,12,0.04
2013-4-10,80.8,75.1,59.9,72.1,61.1,54.6,98,65,44,30.30,30.18,7,3,11,0.00
2013-4-11,85.6,64.1,53.6,70.0,58.1,53.0,98,85,36,30.27,30.18,4,1,6,0.00
2013-4-12,82.9,77.8,63.0,72.1,59.7,52.8,98,56,39,30.33,30.21,7,4,12,0.00
2013-4-13,79.9,62.2,56.1,70.4,59.7,55.6,98,93,50,30.24,30.01,6,1,13,0.00
2013-4-14,85.1,64.8,56.7,74.1,60.5,54.5,98,89,40,30.03,29.86,5,0,8,0.00
2013-4-15,93.2,64.2,58.1,69.2,60.4,53.6,98,91,29,29.92,29.74,6,0,12,0.00
2013-4-16,75.9,67.3,63.3,69.6,63.9,56.8,98,90,55,30.01,29.86,6,3,13,0.12
2013-4-17,79.2,63.1,57.6,66.0,60.6,54.1,98,93,44,30.07,29.95,7,2,15,0.21
2013-4-18,80.4,63.9,58.3,70.7,61.1,55.2,98,92,45,30.03,29.89,6,1,10,0.00
2013-4-19,71.1,61.5,58.5,61.7,52.8,35.8,98,78,32,30.01,29.89,8,3,17,0.00
2013-4-20,63.3,58.8,56.8,62.6,50.8,36.1,98,78,41,30.07,29.86,8,4,17,1.45
2013-4-21,76.5,58.8,54.7,57.4,54.1,43.0,98,87,33,30.07,29.92,6,3,12,0.00
2013-4-22,83.1,59.8,56.5,64.4,56.9,46.0,98,93,29,29.98,29.77,5,1,10,0.00
2013-4-23,82.6,56.6,49.3,66.2,52.0,38.5,98,90,23,30.07,29.89,6,0,10,0.00
2013-4-24,56.8,54.2,52.2,56.3,53.6,51.6,98,98,98,30.07,30.03,0,0,2,0.00
2013-4-25,80.4,65.4,52.0,63.8,51.8,43.3,98,68,30,30.24,30.15,4,1,7,0.00
2013-4-26,83.7,55.8,47.8,63.1,50.6,45.4,98,87,28,30.30,30.12,4,1,8,0.00
2013-4-27,80.8,60.4,50.4,67.6,53.7,47.1,98,84,32,30.24,30.09,5,1,8,0.00
2013-4-28,85.8,64.7,56.1,61.3,51.8,42.5,96,68,23,30.18,30.07,8,2,10,0.00
2013-4-29,84.9,61.2,52.9,66.1,52.6,43.0,98,77,26,30.27,30.12,7,1,16,0.00
2013-4-30,78.8,68.7,63.5,72.1,66.1,62.1,98,92,63,30.30,30.21,7,2,13,0.00